Weather in Uran

Russia / Orenburg Oblast     52°31′38″N   53°04′59″E
temp.,
°C
wind,
m/s
gust,
m/s
humid.,
%
clouds,
%
prec.,
mm/h
press.,
hPa
HPBL,
m
27 july, tue
tue2723:00+16wnw33465 0.0 102134
02:00+15n11515 0.0 102011
05:00+14wsw115219 0.0 102011
08:00+18w344495 0.0 1020219
11:00+24wnw46355 0.0 10191968
14:00+25nw663086 0.0 10172674
17:00+25wnw673317 0.0 10161495
20:00+24wnw2536100 0.0 1015705
28 july, wed
wed2823:00+20w344666 0.0 101567
02:00+17wnw23575 0.0 101424
05:00+15nw226997 0.0 101416
08:00+19nnw35585 0.0 1015346
11:00+24nnw69385 0.0 10151956
14:00+25nnw67274 0.0 10142339
17:00+26nnw66235 0.0 10132575
20:00+24n46243 0.0 1014634
29 july, thu
thu2923:00+17ne22353 0.0 101411
02:00+15e11420 0.0 101510
05:00+13s114513 0.0 101510
08:00+17s2237100 0.0 1015129
11:00+24wsw342767 0.0 10141247
14:00+28wsw452270 0.0 10132431
17:00+29sw562284 0.0 10112887
20:00+23nw6950100 0.1 1011358
30 july, fri
fri3023:00+21sse7155899 0.6 1007290
02:00+25sw7143573 0.1 1007619
05:00+17sw3107789 1.6 1007171
08:00+20w488076 0.1 1008292
11:00+26w6955100 0.1 10081113
14:00+29wnw793998 0.0 10081849
17:00+31wnw68332 0.0 10082525
20:00+29wnw3537100 0.0 1008197
31 july, sat
sat3123:00+23ssw115294 0.0 100911
02:00+24ne1150100 0.0 100922
05:00+21ne1158100 0.0 100911
08:00+24s1150100 0.0 1010143
11:00+28wsw5539100 0.0 10101066
14:00+28sw453979 0.0 10101365
17:00+28sw664322 0.0 10111119
20:00+28sw354232 0.0 1010873